Overview Statistics Trail Chart Weather Telemetry Raw packets
 

This is the latest recevied weather packets stored in our database for station/object K6POO-1. If no packets are shown the sender has not sent any weather packets the latest 10 day(s).

<< 66 67 68 69 70 71 72 >>
Time Temp. Humidity Pressure Rain* Wind** Luminosity Snow
1788220731 17.78° C 75% 1013.7 hPa 0 mm - 174 W/m² -
1788220427 17.78° C 76% 1013.8 hPa 0 mm - 204 W/m² -
1788220123 17.78° C 76% 1013.8 hPa 0 mm - 277 W/m² -
1788219822 17.22° C 77% 1013.9 hPa 0 mm - 256 W/m² -
1788219518 17.78° C 76% 1013.9 hPa 0 mm - 197 W/m² -
1788219213 17.78° C 77% 1013.9 hPa 0 mm - 188 W/m² -
1788218908 17.78° C 76% 1013.9 hPa 0 mm - 275 W/m² -
1788218605 17.78° C 76% 1013.8 hPa 0 mm - 381 W/m² -
1788218300 17.78° C 75% 1014 hPa 0 mm - 289 W/m² -
1788217996 17.78° C 74% 1013.8 hPa 0 mm - 375 W/m² -
1788217691 17.78° C 75% 1013.9 hPa 0 mm - 226 W/m² -
1788217386 17.78° C 74% 1014 hPa 0 mm - 304 W/m² -
1788217086 17.78° C 75% 1013.9 hPa 0 mm - 290 W/m² -
1788216781 17.22° C 74% 1014 hPa 0 mm - 300 W/m² -
1788216476 17.78° C 72% 1014.1 hPa 0 mm - 355 W/m² -
1788216171 17.78° C 74% 1014.2 hPa 0 mm - 340 W/m² -
1788215866 17.78° C 74% 1014.1 hPa 0 mm - 322 W/m² -
1788215562 17.78° C 76% 1014.2 hPa 0 mm - 340 W/m² -
1788215258 17.78° C 75% 1014.2 hPa 0 mm - 267 W/m² -
1788214954 17.78° C 75% 1014.2 hPa 0 mm - 286 W/m² -
1788214649 18.33° C 73% 1014.4 hPa 0 mm - 323 W/m² -
1788214345 18.33° C 74% 1014.3 hPa 0 mm - 328 W/m² -
1788214039 17.78° C 75% 1014.4 hPa 0 mm - 385 W/m² -
1788213735 17.78° C 75% 1014.3 hPa 0 mm - 334 W/m² -
1788213429 17.78° C 75% 1014.4 hPa 0 mm - 316 W/m² -

* Rain latest hour (hover to see other rain measurements)
** Current wind speed in m/s (hover to see current wind gust speed)